User: anonymous   Login
Location: Unspecified
(0.0000°N, 0.0000°E)
Time: 11:13:01
(UTC+00:00)
Language:

GOES 8 - Orbit

View from above orbital plane
View from above orbital plane
View from above satellite
View from above satellite

Ground track
Ground track

The orbit data is extracted from the following two-line orbital elements,

1 23051U 94022A   18019.74136487 -.00000161 +00000-0 +00000-0 0  9996
2 23051 011.6494 036.8983 0010443 255.5884 099.5532 00.98907005093759
Epoch (UTC): 19 January 2018 17:47:33
Eccentricity: 0.0010443
inclination: 11.6494°
perigee height: 36129 km
apogee height: 36217 km
right ascension of ascending node: 36.8983°
argument of perigee: 255.5884°
revolutions per day: 0.98907005
mean anomaly at epoch: 99.5532°
orbit number at epoch: 9375

The dashed part of the orbit path shows where the satellite is in the earth's shadow,  

DLR